Location: Boutencourt
(49.3196°N, 1.8580°E)
Time: 21:38:42
(UTC+00:00)

Daily predictions for brighter satellites

Satellite Brightness Start Highest point End
(mag) Time Altitude Azimuth Time Altitude Azimuth Time Altitude Azimuth
Cosmos 2227 Rocket 2.4 16:23:48 10° NNW 16:29:21 51° NE 16:34:50 10° SE
Meteor 1-28 Rocket 3.6 16:27:03 10° NNE 16:30:10 35° E 16:33:15 10° SSE
Cosmos 2369 Rocket 4.2 16:28:13 10° W 16:32:09 19° NW 16:36:06 10° N
CBERS-1 4.0 16:27:35 10° SSE 16:32:40 68° ENE 16:37:45 10° N
CENTAUR R/B 3.5 16:34:56 10° W 16:40:38 40° NNW 16:47:43 10° NE
Cosmos 1697 Rocket 3.1 16:36:02 10° S 16:41:22 47° ESE 16:46:44 10° NE
Cosmos 2360 4.3 16:37:12 10° SSW 16:42:56 88° WNW 16:48:43 10° NNE
Cosmos 1626 Rocket 4.1 16:38:49 10° NNW 16:43:05 61° W 16:47:19 10° S
CZ-2D R/B 3.8 16:41:55 10° SE 16:44:31 24° ENE 16:47:09 10° NNE
Cosmos 2266 Rocket 3.9 16:42:47 10° N 16:48:56 68° ENE 16:54:57 10° SSE
Cosmos 1656 4.2 16:45:11 10° SW 16:50:46 61° WNW 16:56:26 10° NNE
Cosmos 2228 4.4 16:47:46 10° SW 16:51:45 39° WNW 16:55:46 10° N
Cosmos 1606 Rocket 4.0 16:48:30 10° SSE 16:52:39 42° E 16:56:51 10° NNE
Cosmos 1503 Rocket 4.0 16:49:40 10° SSW 16:54:54 80° ESE 17:00:06 10° NNE
Lacrosse 5 rocket 2.5 16:53:10 10° WNW 16:56:19 25° N 16:58:51 13° NE
UNK 3.9 16:54:37 10° NNE 16:59:06 52° E 17:03:32 10° S
CZ-4C R/B 3.4 16:52:15 10° NW 16:59:12 71° SW 17:07:48 10° SSE
Cosmos 1484 Rocket 3.3 16:56:18 10° S 16:59:45 56° WSW 17:03:12 10° NNW
Thor Agena Rocket 3.5 16:55:46 10° SSE 17:00:58 85° ENE 17:06:08 10° NNW
Cosmos 1743 3.4 16:58:14 10° NNW 17:01:24 47° W 17:04:30 10° S
Cosmos 1544 Rocket 4.3 16:57:45 10° SSW 17:02:05 55° WNW 17:06:27 10° N
IRS-P3 4.4 16:58:41 10° SE 17:03:42 44° ENE 17:08:44 10° N
NOSS 2-3 (D) 3.8 17:01:01 10° SSW 17:04:28 39° SE 17:07:02 17° ENE
NOSS 2-3 (E) 3.6 17:01:37 10° SSW 17:05:06 43° SE 17:07:43 17° ENE
Cosmos 1354 Rocket 4.0 17:00:41 10° SSW 17:05:55 71° ESE 17:11:09 10° NNE
IGS 5A 3.9 17:03:18 10° S 17:07:13 62° W 17:11:11 10° NNW
NOSS 2-2 (D) 4.5 17:05:07 10° W 17:07:43 24° NW 17:10:10 11° NNE
Cosmos 1777 Rocket 4.3 17:02:55 10° SSW 17:08:09 71° WNW 17:13:24 10° NNE
Cosmos 2151 3.5 17:05:22 10° NNW 17:09:29 61° W 17:13:36 10° S
Cosmos-2242 4.2 17:06:24 10° SE 17:09:38 21° E 17:11:23 17° NE
USA 238 DEB 4.0 17:04:11 10° S 17:09:50 42° ESE 17:14:48 15° NE
USA 238 4.0 17:04:18 10° S 17:09:57 41° ESE 17:14:54 15° NE
MOS 1 Rocket 3.6 17:05:45 10° SE 17:10:36 53° ENE 17:15:43 10° N
Cosmos 1898 Rocket 4.5 17:09:35 10° SSE 17:13:49 27° E 17:16:31 17° ENE
Gbstr 26 Del rocket 2.8 17:09:54 10° WSW 17:14:02 68° SSE 17:16:29 20° ENE
Cosmos 1726 Rocket 3.8 17:10:40 10° S 17:15:10 53° E 17:19:37 10° NNE
ERS-1 4.4 17:11:46 10° SSE 17:16:41 63° ENE 17:21:36 10° N
USA 215 3.8 17:12:07 15° ENE 17:17:17 47° N 17:23:29 10° WNW
Cosmos 2082 4.1 17:12:24 10° NNW 17:17:49 42° NE 17:23:14 10° ESE
AQUARIUS 4.1 17:13:51 10° SSE 17:18:10 59° ENE 17:22:31 10° N
SMAP 3.2 17:14:50 10° SSE 17:19:29 81° WSW 17:24:11 10° NNW
Cosmos 1805 3.8 17:17:38 10° NNE 17:20:30 25° ENE 17:23:21 10° SE
Cosmos 2297 Rocket 4.1 17:16:26 10° NW 17:21:29 34° WSW 17:26:31 10° S
GEOS 3 Rocket 3.8 17:19:09 16° NE 17:23:29 64° SE 17:28:49 10° SSW
Landsat 7 3.7 17:18:58 10° SSE 17:23:37 88° ENE 17:28:19 10° NNW
YAOGAN 1 3.3 17:22:46 10° SE 17:26:28 30° ENE 17:30:11 10° N
Cosmos 1937 Rocket 4.4 17:25:06 10° SSE 17:29:22 27° E 17:30:51 23° ENE
Okean 1-7 Rocket 4.3 17:26:07 10° NNW 17:30:25 54° W 17:34:39 10° S
SL-16 R/B 4.1 17:28:52 10° ESE 17:29:26 11° ESE 17:29:26 11° ESE
Cosmos 990 Rocket 4.0 17:28:10 10° SSW 17:33:18 83° WNW 17:38:14 11° NNE
Cosmos 1461 3.9 17:30:04 10° WSW 17:33:41 36° NW 17:36:23 16° NNE
CZ-2D R/B 3.8 17:30:36 10° SE 17:34:30 40° ENE 17:38:21 10° N
SL-16 R/B 3.3 17:29:08 10° N 17:35:08 52° WNW 17:41:05 10° SW
SKYMED 2 4.0 17:35:14 24° NE 17:37:21 39° E 17:41:24 10° SSE
COSMOS 2455 4.0 17:33:29 10° SSE 17:37:55 22° ESE 17:38:36 21° E
Okean 1 3.9 17:35:38 10° SSE 17:38:21 29° ESE 17:38:21 29° ESE
Cosmos 1844 Rocket 3.5 17:39:50 10° NNW 17:44:47 30° NE 17:45:49 28° ENE
SJ-6F 4.3 17:40:52 10° SSE 17:44:51 87° WSW 17:48:55 10° NNW
Cosmos 2219 3.1 17:39:20 10° NNW 17:45:06 74° ENE 17:50:51 10° SE
Cosmos 1980 Rocket 2.1 17:40:04 10° SSW 17:45:40 67° ESE 17:49:21 22° NE
Cosmos 1953 Rocket 3.6 17:42:57 10° NNW 17:47:25 83° W 17:51:52 10° S
Aureole 1 Rocket 3.4 17:43:03 10° S 17:47:38 67° ESE 17:51:47 19° NNE
Meteor 1-26 Rocket 4.2 17:43:45 10° S 17:48:56 50° E 17:52:48 18° NNE
PSLV R/B 3.7 17:49:59 38° E 17:50:36 41° ENE 17:54:26 10° N
ARIANE 5 R/B 3.2 17:47:40 10° S 17:52:38 56° W 17:57:43 10° NNW
Cosmos 2263 Rocket 2.5 17:47:36 10° NNW 17:53:16 71° WSW 17:58:55 10° SSE
SL-19 R/B 4.3 17:48:16 10° SE 17:53:33 53° ENE 17:59:08 10° N
BREEZE-M DEB (TANK) 3.6 17:53:58 10° SW 17:57:13 27° SSE 17:57:13 27° SSE
Cosmos 1680 Rocket 3.7 17:53:38 10° NNW 17:58:39 46° ENE 18:00:24 34° ESE
COSMO-SKYMED 1 2.9 17:59:08 40° ESE 17:59:08 40° ESE 18:02:35 10° S
BREEZE-M DEB (TANK) 3.9 17:55:46 10° W 17:59:20 79° SSW 18:06:53 19° ESE
NOSS 3-2 (C) 4.0 17:54:22 10° WSW 17:59:26 45° NW 18:03:20 21° NNE
NOAA 15 4.5 17:55:37 10° SSE 18:00:52 71° ENE 18:06:09 10° N
Cosmos 1076 Rocket 4.3 17:57:49 10° NNW 18:02:01 53° W 18:06:13 10° S
Meteor 2-10 4.1 17:56:52 10° NNW 18:02:17 84° W 18:07:52 10° S
NOAA 6 4.1 17:57:57 10° SE 18:02:51 50° ENE 18:07:47 10° N
Cosmos 2369 3.8 17:57:48 10° S 18:03:22 54° ESE 18:05:20 37° ENE
USA 81 4.1 18:06:09 10° N 18:11:27 77° W 18:16:41 10° S
Cosmos 44 Rocket 3.8 18:06:54 10° NNW 18:11:48 43° NE 18:11:53 43° NE
Cosmos 2227 Rocket 4.1 18:08:15 10° NW 18:13:07 31° WSW 18:17:59 10° SSW
SPOT 1/Viking Rocket 3.8 18:11:30 10° S 18:16:41 70° WSW 18:21:54 10° NNW
Cosmos 2058 Rocket 3.4 18:19:30 10° SSW 18:23:57 66° WNW 18:26:26 25° N
Cosmos 1697 Rocket 4.0 18:20:19 10° WSW 18:25:28 36° NW 18:29:16 17° N
OceanSat 1 rocket 4.4 18:21:34 10° SSE 18:26:18 84° ENE 18:31:02 10° NNW
Cosmos 2333 Rocket 4.1 18:28:24 10° SSE 18:29:34 15° SSE 18:29:34 15° SSE
CENTAUR R/B 4.1 18:27:29 10° WNW 18:33:20 28° N 18:35:36 24° NNE
Lacrosse 5 rocket 3.1 18:30:49 10° NW 18:32:26 20° NNW 18:32:26 20° NNW
Meteor 2-11 Rocket 4.3 18:28:11 10° N 18:34:23 86° ENE 18:40:32 10° S
NOSS 2-3 (C) 4.3 18:31:54 10° WSW 18:34:52 37° NW 18:34:52 37° NW
Meteor 1-14 Rocket 4.1 18:32:48 10° N 18:38:36 72° ENE 18:39:10 66° ESE
Resurs 1-3 4.3 18:39:25 10° S 18:43:36 51° W 18:47:49 10° NNW
Cosmos-2242 4.2 18:42:23 10° SW 18:46:24 41° WNW 18:47:46 31° NNW
Cosmos 1898 Rocket 4.2 18:50:32 10° SW 18:55:31 49° WNW 18:56:45 41° NNW
Cosmos 1844 4.0 18:50:19 10° NNW 18:54:37 53° N 18:54:37 53° N
USA 215 3.5 18:59:28 53° NNE 18:59:42 53° NNE 19:06:01 10° WNW
Cosmos 2112 Rocket 4.2 18:55:12 10° NNW 18:59:48 65° WNW 18:59:48 65° WNW
USA 238 DEB 4.0 18:54:29 10° WSW 19:00:35 54° NW 19:02:15 44° N
USA 238 4.0 18:54:34 10° WSW 19:00:41 55° NW 19:02:21 44° N
Cosmos 1553 Rocket 4.4 18:54:45 10° SSW 19:00:50 60° WNW 19:07:05 10° N
YAOGAN 1 4.2 18:58:26 10° SSW 19:02:16 32° W 19:06:07 10° NNW
BREEZE-M DEB (TANK) 3.9 19:01:21 10° SW 19:06:16 44° SSW 19:06:16 44° SSW
Cosmos 1937 Rocket 4.2 19:05:57 10° SW 19:10:58 49° WNW 19:10:58 49° WNW
SL-16 R/B 3.5 19:08:35 10° SSW 19:11:20 30° SSW 19:11:20 30° SSW
Cosmos 1745 Rocket 4.2 19:10:17 10° NNW 19:16:25 67° W 19:22:27 10° S
COSMOS 2455 3.3 19:17:08 10° SW 19:21:46 55° SW 19:21:46 55° SW
Cosmos 1844 Rocket 3.6 19:23:27 10° NW 19:27:31 45° WNW 19:27:31 45° WNW
Cosmos 1980 Rocket 3.8 19:25:21 10° WSW 19:30:08 28° NW 19:31:07 26° NNW
CENTAUR R/B 4.5 20:19:04 10° NW 20:22:41 27° NNW 20:22:41 27° NNW
